Location: *
(60.1759°S, 155.0663°W)
Time: 08:00:09
(UTC+00:00)

NOSS 3-4 (C) - Pass Details

Date: 17 September 2019
Orbit: 913 x 1299 km, 63.4° (Epoch: 21 September)

Event Time Altitude Azimuth Distance (km) Brightness Sun altitude
Exits shadow 12:22:38 54° 296° (WNW) 1,490 4.0 -27.1°
Maximum altitude 12:24:45 89° 205° (SSW) 1,233 3.9 -27.0°
Drops below altitude 10° 12:32:11 10° 115° (ESE) 3,052 6.9 -26.4°
Sets 12:34:47 0° 115° (ESE) 3,958 7.7 -26.2°
